FW3585 Weather Reports


time (UTC)temp
F
wind
direction
speed
knots
gust
knots
rain 1hr
in
rain 24hr
in
rain mn
in
humidity
%
barometer
mb
20260506093055 62 177 3.5 8.7 0.00 0.00 0.00 78 1010.9
20260506091555 62 182 3.5 7.8 0.00 0.00 0.00 78 1011.1
20260506090051 62 215 4.3 10.4 0.00 0.00 0.00 77 1011.3
20260506084550 62 188 5.2 12.2 0.00 0.00 0.00 77 1011.3
20260506083049 63 153 2.6 8.7 0.00 0.00 0.00 76 1011.3
20260506081545 63 178 4.3 13.0 0.00 0.00 0.00 76 1011.3
20260506073040 63 157 3.5 8.7 0.00 0.00 0.00 76 1011.7
20260506071537 63 180 2.6 7.0 0.00 0.00 0.00 76 1011.7
20260506061530 63 186 3.5 9.6 0.00 0.00 0.00 73 1012.1
20260506044517 65 178 5.2 13.0 0.00 0.00 0.00 63 1012.6
20260506043017 65 140 3.5 7.0 0.00 0.00 0.00 61 1012.5
20260506041512 65 141 2.6 8.7 0.00 0.00 0.00 59 1012.5
20260506040013 65 142 3.5 7.0 0.00 0.00 0.00 58 1012.4
20260506034511 66 152 2.6 7.0 0.00 0.00 0.00 57 1012.4
20260506033013 66 144 1.7 6.1 0.00 0.00 0.00 56 1012.5
20260506031508 67 154 0.9 4.3 0.00 0.00 0.00 54 1012.5
20260506030007 67 169 1.7 5.2 0.00 0.00 0.00 53 1012.5
20260506024523 68 150 2.6 6.1 0.00 0.00 0.00 53 1012.7
20260506023006 68 182 1.7 5.2 0.00 0.00 0.00 53 1012.7
20260506021506 68 168 0.9 2.6 0.00 0.00 0.00 52 1012.7
20260506020008 69 159 0.9 4.3 0.00 0.00 0.00 51 1012.5
20260506014513 69 153 0.9 4.3 0.00 0.00 0.00 50 1012.5
20260506013005 70 158 0.9 4.3 0.00 0.00 0.00 49 1012.3
20260506011511 71 157 0.9 5.2 0.00 0.00 0.00 48 1012.3
20260506010007 71 173 2.6 7.0 0.00 0.00 0.00 46 1012.3
20260506004505 72 175 1.7 4.3 0.00 0.00 0.00 45 1012.1
20260506003003 73 136 0.9 5.2 0.00 0.00 0.00 43 1011.9
20260506001502 74 178 1.7 8.7 0.00 0.00 0.00 42 1011.8
20260506000002 74 186 2.6 13.9 0.00 0.00 0.00 42 1011.8
20260505234505 75 176 4.3 8.7 0.00 0.00 0.00 42 1011.8
20260505233001 76 198 3.5 12.2 0.00 0.00 0.00 42 1011.7
20260505231559 76 232 3.5 9.6 0.00 0.00 0.00 41 1011.6
20260505230059 77 222 5.2 18.2 0.00 0.00 0.00 40 1011.7
20260505224559 77 144 2.6 16.5 0.00 0.00 0.00 40 1011.9
20260505223108 77 196 7.0 16.5 0.00 0.00 0.00 39 1012.1
20260505221603 78 174 7.0 13.9 0.00 0.00 0.00 38 1012.0
20260505220059 78 240 7.0 15.6 0.00 0.00 0.00 37 1012.0
20260505214602 78 225 11.3 20.0 0.00 0.00 0.00 37 1012.0
20260505213055 78 194 9.6 21.7 0.00 0.00 0.00 35 1011.8
20260505211620 79 211 7.0 13.0 0.00 0.00 0.00 36 1011.8
20260505210055 79 202 8.7 18.2 0.00 0.00 0.00 35 1011.9
20260505204555 79 174 9.6 20.0 0.00 0.00 0.00 34 1011.8
20260505203116 80 162 6.1 20.0 0.00 0.00 0.00 34 1011.7
20260505201551 80 246 13.0 21.7 0.00 0.00 0.00 34 1012.1
20260505200048 79 235 7.0 21.7 0.00 0.00 0.00 35 1012.2
20260505194546 79 213 14.8 26.1 0.00 0.00 0.00 36 1012.3
20260505193044 78 241 9.6 19.1 0.00 0.00 0.00 35 1012.5
20260505191547 79 148 7.8 16.5 0.00 0.00 0.00 33 1012.8
20260505190044 78 217 10.4 19.1 0.00 0.00 0.00 35 1012.8
20260505184547 79 211 7.8 19.1 0.00 0.00 0.00 34 1013.0
20260505183043 78 198 10.4 21.7 0.00 0.00 0.00 31 1013.1
20260505181537 79 228 10.4 19.1 0.00 0.00 0.00 31 1013.2
20260505180036 78 176 5.2 20.9 0.00 0.00 0.00 32 1013.2
20260505174534 78 207 9.6 19.1 0.00 0.00 0.00 35 1013.7
20260505173033 78 259 7.8 16.5 0.00 0.00 0.00 37 1013.6
20260505171531 77 185 3.5 14.8 0.00 0.00 0.00 39 1013.8
20260505170035 77 242 6.1 13.9 0.00 0.00 0.00 40 1014.0
20260505164533 76 213 4.3 9.6 0.00 0.00 0.00 45 1014.2
20260505163028 76 190 4.3 14.8 0.00 0.00 0.00 40 1014.4
20260505161523 75 259 4.3 10.4 0.00 0.00 0.00 42 1014.6
20260505153014 74 213 4.3 11.3 0.00 0.00 0.00 46 1015.0
20260505151509 73 254 7.0 11.3 0.00 0.00 0.00 47 1015.1
20260505124527 60 233 0.0 4.3 0.00 0.00 0.00 67 1015.4
20260505123022 59 177 0.9 6.1 0.00 0.00 0.00 66 1015.4
20260505121520 58 188 0.9 4.3 0.00 0.00 0.00 66 1015.3
20260505120018 58 200 1.7 3.5 0.00 0.00 0.00 66 1015.3
20260505114516 56 208 2.6 6.1 0.00 0.00 0.00 67 1015.2
20260505113017 55 144 0.9 2.6 0.00 0.00 0.00 69 1014.9
20260505111521 54 144 0.9 4.3 0.00 0.00 0.00 69 1014.7
20260505101602 54 193 1.7 4.3 0.00 0.00 0.00 67 1014.2
20260505100057 54 153 2.6 4.3 0.00 0.00 0.00 66 1014.2
20260505094601 55 149 1.7 3.5 0.00 0.00 0.00 66 1014.0